EFW3MG LEZL-EGKK

Flight info

Callsign EFW3MG
Flight time N/A
Altitude 34000
Route HIJ3R HIJ DCT PARKA DCT MELON DCT ZMR DCT NUBLO DCT RONSI/N0448F360 DCT DELOG DCT DEGEX DCT OZNOH DCT JSY/N0443F340 DCT REVTU UP88 VASUX VASUX1G
Aircraft A321/M-SDE3FGIJ1KRWXY/SB1

Departure

Time 2026-04-27 08:35
Airport Seville Airport (LEZL)

Arrival

Time N/A
Airport London Gatwick Airport (EGKK)
Time Latitude Longitude Altitude Speed Heading
2026-04-27 08:08 37.42233 -5.89572 94 ft 0 kts 82°
2026-04-27 08:28 37.42233 -5.89571 94 ft 1 kts 82°
2026-04-27 08:29 37.42235 -5.89558 94 ft 3 kts 82°
2026-04-27 08:29 37.42238 -5.89528 94 ft 4 kts 85°
2026-04-27 08:29 37.42231 -5.89490 95 ft 6 kts 114°
2026-04-27 08:29 37.42204 -5.89449 96 ft 5 kts 137°
2026-04-27 08:30 37.42174 -5.89432 97 ft 7 kts 168°
2026-04-27 08:30 37.42132 -5.89458 97 ft 8 kts 226°
2026-04-27 08:30 37.42095 -5.89510 97 ft 9 kts 227°
2026-04-27 08:30 37.42044 -5.89576 101 ft 12 kts 225°
2026-04-27 08:31 37.41991 -5.89659 97 ft 12 kts 242°
2026-04-27 08:31 37.41978 -5.89771 96 ft 14 kts 266°
2026-04-27 08:31 37.41977 -5.89897 96 ft 15 kts 270°
2026-04-27 08:31 37.41978 -5.90031 96 ft 16 kts 270°
2026-04-27 08:32 37.41980 -5.90173 95 ft 17 kts 272°
2026-04-27 08:32 37.41982 -5.90321 95 ft 17 kts 269°
2026-04-27 08:32 37.41980 -5.90479 94 ft 19 kts 270°
2026-04-27 08:32 37.41981 -5.90645 93 ft 20 kts 270°
2026-04-27 08:33 37.41981 -5.90821 91 ft 21 kts 270°
2026-04-27 08:33 37.41958 -5.90978 91 ft 18 kts 245°
2026-04-27 08:33 37.41896 -5.91109 91 ft 17 kts 238°
2026-04-27 08:33 37.41817 -5.91182 91 ft 12 kts 173°
2026-04-27 08:34 37.41788 -5.91107 90 ft 5 kts 90°
2026-04-27 08:34 37.41788 -5.91085 93 ft 13 kts 90°
2026-04-27 08:34 37.41787 -5.90644 95 ft 86 kts 90°
2026-04-27 08:34 37.41790 -5.89626 98 ft 145 kts 90°
2026-04-27 08:35 37.41795 -5.88192 377 ft 169 kts 89°
2026-04-27 08:35 37.41809 -5.86709 1059 ft 171 kts 88°
2026-04-27 08:35 37.42000 -5.85225 1631 ft 174 kts 74°
2026-04-27 08:35 37.42370 -5.83691 1915 ft 193 kts 72°
2026-04-27 08:36 37.42741 -5.82000 2229 ft 208 kts 79°
2026-04-27 08:36 37.42984 -5.80180 2620 ft 218 kts 81°
2026-04-27 08:36 37.43231 -5.78260 3008 ft 229 kts 80°
2026-04-27 08:36 37.43788 -5.76311 3279 ft 249 kts 54°
2026-04-27 08:37 37.45125 -5.74840 3672 ft 263 kts 30°
2026-04-27 08:37 37.46773 -5.73800 4313 ft 267 kts 25°
2026-04-27 08:37 37.48456 -5.72786 5005 ft 270 kts 25°
2026-04-27 08:37 37.50157 -5.71758 5686 ft 272 kts 25°
2026-04-27 08:38 37.51874 -5.70721 6367 ft 275 kts 25°
2026-04-27 08:38 37.53584 -5.69688 7032 ft 278 kts 25°
2026-04-27 08:38 37.55337 -5.68630 7685 ft 281 kts 25°
2026-04-27 08:38 37.57107 -5.67558 8025 ft 283 kts 25°
2026-04-27 08:39 37.58884 -5.66477 8653 ft 285 kts 25°
2026-04-27 08:39 37.60680 -5.65387 9303 ft 287 kts 25°
2026-04-27 08:39 37.62491 -5.64289 9924 ft 290 kts 25°
2026-04-27 08:39 37.64314 -5.63181 10539 ft 293 kts 25°
2026-04-27 08:40 37.66205 -5.62033 10759 ft 312 kts 25°
2026-04-27 08:40 37.68220 -5.60812 10892 ft 331 kts 25°
2026-04-27 08:40 37.70349 -5.59519 11021 ft 349 kts 25°
2026-04-27 08:40 37.72572 -5.58166 11339 ft 359 kts 25°
2026-04-27 08:41 37.74834 -5.56787 11853 ft 363 kts 25°
2026-04-27 08:41 37.77116 -5.55399 12388 ft 366 kts 25°
2026-04-27 08:41 37.79417 -5.54000 12926 ft 369 kts 25°
2026-04-27 08:41 37.81742 -5.52583 13440 ft 372 kts 25°
2026-04-27 08:42 37.84080 -5.51158 13957 ft 374 kts 25°
2026-04-27 08:42 37.86444 -5.49713 14455 ft 377 kts 25°
2026-04-27 08:42 37.88814 -5.48264 14945 ft 380 kts 25°
2026-04-27 08:42 37.91180 -5.46816 15416 ft 383 kts 25°
2026-04-27 08:43 37.93588 -5.45342 15893 ft 386 kts 25°
2026-04-27 08:43 37.96015 -5.43855 16384 ft 388 kts 25°
2026-04-27 08:43 37.98455 -5.42353 16831 ft 391 kts 26°
2026-04-27 08:43 38.00913 -5.40838 17273 ft 394 kts 26°
2026-04-27 08:44 38.03381 -5.39319 17722 ft 396 kts 25°
2026-04-27 08:44 38.05868 -5.37793 18143 ft 398 kts 25°
2026-04-27 08:44 38.08371 -5.36256 18535 ft 401 kts 25°
2026-04-27 08:44 38.10891 -5.34706 18919 ft 403 kts 25°
2026-04-27 08:45 38.13421 -5.33147 19300 ft 406 kts 26°
2026-04-27 08:45 38.15972 -5.31574 19682 ft 408 kts 25°
2026-04-27 08:45 38.18537 -5.29994 20053 ft 411 kts 25°
2026-04-27 08:45 38.21121 -5.28404 20408 ft 414 kts 25°
2026-04-27 08:46 38.23718 -5.26805 20773 ft 416 kts 26°
2026-04-27 08:46 38.26323 -5.25192 21130 ft 418 kts 26°
2026-04-27 08:46 38.28945 -5.23565 21498 ft 420 kts 26°
2026-04-27 08:46 38.31584 -5.21928 21836 ft 422 kts 26°
2026-04-27 08:47 38.34197 -5.20308 22167 ft 424 kts 26°
2026-04-27 08:47 38.36858 -5.18656 22487 ft 427 kts 26°
2026-04-27 08:47 38.39534 -5.16995 22822 ft 429 kts 26°
2026-04-27 08:47 38.42225 -5.15323 23151 ft 431 kts 26°
2026-04-27 08:48 38.44928 -5.13643 23468 ft 433 kts 26°
2026-04-27 08:48 38.47667 -5.12030 23772 ft 434 kts 20°
2026-04-27 08:48 38.50565 -5.10926 24080 ft 436 kts 11°
2026-04-27 08:48 38.53576 -5.10432 24374 ft 437 kts
2026-04-27 08:49 38.56621 -5.10546 24661 ft 439 kts 355°
2026-04-27 08:49 38.59672 -5.10866 24953 ft 441 kts 355°
2026-04-27 08:49 38.62736 -5.11185 25246 ft 442 kts 355°
2026-04-27 08:49 38.65811 -5.11502 25532 ft 444 kts 355°
2026-04-27 08:50 38.68895 -5.11819 25810 ft 446 kts 355°
2026-04-27 08:50 38.72000 -5.12133 26080 ft 448 kts 355°
2026-04-27 08:50 38.75111 -5.12448 26344 ft 450 kts 355°
2026-04-27 08:50 38.78243 -5.12765 26601 ft 452 kts 355°
2026-04-27 08:51 38.81382 -5.13084 26855 ft 454 kts 355°
2026-04-27 08:51 38.84541 -5.13404 27105 ft 456 kts 355°
2026-04-27 08:51 38.87705 -5.13725 27373 ft 457 kts 355°
2026-04-27 08:51 38.90880 -5.14047 27602 ft 459 kts 355°
2026-04-27 08:52 38.94072 -5.14373 27824 ft 460 kts 355°
2026-04-27 08:52 38.97270 -5.14699 28049 ft 462 kts 355°
2026-04-27 08:52 39.00480 -5.15090 28251 ft 463 kts 351°
2026-04-27 08:52 39.03660 -5.15781 28453 ft 464 kts 350°
2026-04-27 08:53 39.06845 -5.16486 28634 ft 466 kts 350°
2026-04-27 08:53 39.10044 -5.17190 28808 ft 467 kts 350°
2026-04-27 08:53 39.13251 -5.17890 29043 ft 466 kts 350°
2026-04-27 08:53 39.16448 -5.18585 29311 ft 466 kts 350°
2026-04-27 08:54 39.19602 -5.19273 29552 ft 465 kts 350°
2026-04-27 08:54 39.22834 -5.19983 29791 ft 465 kts 350°
2026-04-27 08:54 39.26023 -5.20682 30023 ft 465 kts 350°
2026-04-27 08:54 39.29207 -5.21378 30265 ft 464 kts 350°
2026-04-27 08:55 39.32352 -5.22067 30497 ft 463 kts 350°
2026-04-27 08:55 39.35529 -5.22764 30724 ft 463 kts 350°
2026-04-27 08:55 39.38705 -5.23460 30931 ft 463 kts 350°
2026-04-27 08:55 39.41885 -5.24159 31132 ft 463 kts 350°
2026-04-27 08:56 39.45059 -5.24854 31355 ft 462 kts 350°
2026-04-27 08:56 39.48232 -5.25549 31549 ft 463 kts 350°
2026-04-27 08:56 39.51405 -5.26245 31746 ft 463 kts 350°
2026-04-27 08:56 39.54586 -5.26949 31905 ft 464 kts 350°
2026-04-27 08:57 39.60940 -5.28364 32354 ft 462 kts 350°
2026-04-27 08:57 39.64103 -5.29071 32568 ft 461 kts 350°
2026-04-27 08:57 39.67263 -5.29774 32762 ft 461 kts 350°
2026-04-27 08:58 39.70426 -5.30476 32951 ft 460 kts 350°
2026-04-27 08:58 39.73578 -5.31176 33182 ft 459 kts 350°
2026-04-27 08:58 39.76721 -5.31875 33395 ft 458 kts 350°
2026-04-27 08:58 39.79861 -5.32524 33595 ft 457 kts 351°
2026-04-27 08:59 39.81949 -5.32913 33722 ft 457 kts 352°
2026-04-27 08:59 39.86122 -5.33624 33954 ft 456 kts 352°
2026-04-27 08:59 39.88247 -5.33971 33996 ft 455 kts 353°
2026-04-27 09:00 39.95539 -5.35192 34009 ft 454 kts 352°
2026-04-27 09:00 40.00780 -5.36124 34009 ft 453 kts 352°
2026-04-27 09:01 40.06992 -5.37249 34009 ft 453 kts 352°
2026-04-27 09:01 40.13239 -5.38380 34009 ft 453 kts 352°
2026-04-27 09:02 40.19496 -5.39504 34006 ft 455 kts 352°
2026-04-27 09:02 40.25783 -5.40625 33991 ft 457 kts 352°
2026-04-27 09:03 40.32104 -5.41767 33992 ft 460 kts 352°
2026-04-27 09:03 40.38451 -5.42909 34010 ft 461 kts 352°
2026-04-27 09:04 40.44806 -5.44061 34021 ft 461 kts 352°
2026-04-27 09:04 40.51161 -5.45210 34034 ft 461 kts 352°
2026-04-27 09:05 40.57464 -5.46353 34027 ft 461 kts 352°
2026-04-27 09:05 40.63816 -5.47510 34034 ft 460 kts 352°
2026-04-27 09:06 40.70163 -5.48669 34038 ft 460 kts 352°
2026-04-27 09:06 40.76502 -5.49827 34030 ft 460 kts 352°
2026-04-27 09:07 40.82832 -5.50977 34039 ft 459 kts 352°
2026-04-27 09:07 40.89167 -5.52137 34028 ft 459 kts 352°
2026-04-27 09:08 40.95490 -5.53303 34037 ft 459 kts 352°
2026-04-27 09:08 41.01769 -5.54455 34032 ft 458 kts 352°
2026-04-27 09:09 41.08095 -5.55612 34031 ft 458 kts 352°
2026-04-27 09:09 41.14414 -5.56784 34034 ft 458 kts 352°
2026-04-27 09:10 41.20743 -5.57961 34033 ft 458 kts 352°
2026-04-27 09:10 41.27062 -5.59132 34030 ft 458 kts 352°
2026-04-27 09:11 41.33339 -5.60293 34033 ft 458 kts 352°
2026-04-27 09:11 41.39656 -5.61459 34028 ft 458 kts 352°
2026-04-27 09:12 41.45964 -5.62638 34028 ft 458 kts 352°
2026-04-27 09:12 41.52300 -5.63106 34029 ft 457 kts
2026-04-27 09:13 41.58418 -5.60936 34024 ft 457 kts 23°
2026-04-27 09:13 41.64273 -5.57614 34024 ft 457 kts 22°
2026-04-27 09:14 41.70143 -5.54315 34024 ft 457 kts 22°
2026-04-27 09:14 41.75969 -5.51034 34021 ft 457 kts 22°
2026-04-27 09:15 41.81828 -5.47713 34030 ft 457 kts 22°
2026-04-27 09:15 41.87685 -5.44371 34027 ft 457 kts 22°
2026-04-27 09:16 41.93554 -5.41029 34029 ft 457 kts 22°
2026-04-27 09:16 41.99416 -5.37694 34026 ft 458 kts 22°
2026-04-27 09:17 42.05278 -5.34347 34027 ft 458 kts 22°
2026-04-27 09:17 42.11144 -5.30989 34024 ft 458 kts 22°
2026-04-27 09:18 42.17011 -5.27632 34028 ft 458 kts 22°
2026-04-27 09:18 42.22837 -5.24274 34032 ft 458 kts 23°
2026-04-27 09:19 42.28701 -5.20891 34026 ft 458 kts 23°
2026-04-27 09:19 42.34568 -5.17509 34028 ft 458 kts 23°
2026-04-27 09:20 42.40433 -5.14117 34027 ft 458 kts 23°
2026-04-27 09:20 42.46300 -5.10722 34023 ft 458 kts 23°
2026-04-27 09:21 42.52167 -5.07316 34026 ft 458 kts 23°
2026-04-27 09:21 42.58035 -5.03893 34024 ft 459 kts 23°
2026-04-27 09:22 42.63899 -5.00469 34022 ft 458 kts 23°
2026-04-27 09:22 42.69727 -4.97071 34020 ft 459 kts 23°
2026-04-27 09:23 42.75595 -4.93642 34020 ft 459 kts 23°
2026-04-27 09:23 42.81458 -4.90191 34021 ft 459 kts 23°
2026-04-27 09:24 42.87330 -4.86730 34006 ft 460 kts 23°
2026-04-27 09:24 42.93221 -4.83263 34010 ft 461 kts 23°
2026-04-27 09:25 42.99117 -4.79793 34004 ft 462 kts 23°
2026-04-27 09:25 43.04987 -4.76316 34001 ft 463 kts 23°
2026-04-27 09:26 43.10896 -4.72805 34019 ft 463 kts 23°
2026-04-27 09:26 43.16802 -4.69299 34045 ft 461 kts 23°
2026-04-27 09:27 43.22688 -4.65801 34022 ft 460 kts 23°
2026-04-27 09:27 43.28562 -4.62292 34047 ft 460 kts 23°
2026-04-27 09:28 43.34415 -4.58790 34036 ft 458 kts 23°
2026-04-27 09:28 43.40208 -4.55310 34037 ft 456 kts 23°
2026-04-27 09:29 43.46016 -4.51824 34039 ft 455 kts 23°
2026-04-27 09:29 43.51818 -4.48341 34039 ft 454 kts 23°
2026-04-27 09:30 43.57604 -4.44854 34031 ft 453 kts 23°
2026-04-27 09:30 43.63382 -4.41362 34030 ft 453 kts 23°
2026-04-27 09:31 43.69152 -4.37869 34034 ft 453 kts 23°
2026-04-27 09:31 43.74922 -4.34362 34035 ft 453 kts 24°
2026-04-27 09:32 43.80688 -4.30846 34025 ft 452 kts 23°
2026-04-27 09:32 43.86449 -4.27330 34029 ft 452 kts 24°
2026-04-27 09:33 43.92173 -4.23827 34031 ft 452 kts 24°
2026-04-27 09:33 43.97935 -4.20299 34024 ft 452 kts 23°
2026-04-27 09:34 44.03694 -4.16776 34028 ft 452 kts 24°
2026-04-27 09:34 44.09452 -4.13248 34024 ft 452 kts 24°
2026-04-27 09:35 44.15204 -4.09700 34027 ft 452 kts 24°
2026-04-27 09:35 44.20957 -4.06142 34030 ft 452 kts 24°
2026-04-27 09:36 44.26718 -4.02584 34031 ft 452 kts 24°
2026-04-27 09:36 44.32477 -3.99179 34025 ft 451 kts 17°
2026-04-27 09:37 44.38622 -3.97446 34019 ft 451 kts
2026-04-27 09:37 44.44818 -3.96028 34081 ft 453 kts
2026-04-27 09:37 44.47941 -3.95303 34240 ft 454 kts
2026-04-27 09:38 44.51055 -3.94577 34416 ft 454 kts
2026-04-27 09:38 44.54171 -3.93855 34602 ft 453 kts
2026-04-27 09:38 44.57283 -3.93141 34788 ft 453 kts
2026-04-27 09:38 44.60392 -3.92427 34971 ft 453 kts
2026-04-27 09:39 44.63502 -3.91711 35154 ft 452 kts
2026-04-27 09:39 44.66610 -3.90995 35329 ft 452 kts
2026-04-27 09:39 44.69711 -3.90280 35508 ft 451 kts
2026-04-27 09:39 44.72806 -3.89563 35689 ft 451 kts
2026-04-27 09:40 44.75906 -3.88844 35861 ft 451 kts
2026-04-27 09:40 44.79004 -3.88125 35995 ft 451 kts
2026-04-27 09:40 44.82100 -3.87407 36009 ft 451 kts
2026-04-27 09:41 44.88289 -3.85968 36010 ft 451 kts
2026-04-27 09:41 44.94473 -3.84525 36008 ft 451 kts
2026-04-27 09:42 45.00660 -3.83080 36008 ft 451 kts
2026-04-27 09:42 45.06846 -3.81623 36012 ft 451 kts
2026-04-27 09:43 45.12999 -3.80181 36015 ft 451 kts
2026-04-27 09:43 45.19203 -3.78728 36020 ft 451 kts
2026-04-27 09:44 45.25403 -3.77275 36023 ft 452 kts
2026-04-27 09:44 45.31603 -3.75796 36026 ft 452 kts
2026-04-27 09:45 45.37807 -3.74314 36027 ft 452 kts
2026-04-27 09:45 45.44011 -3.72838 36029 ft 452 kts
2026-04-27 09:46 45.50222 -3.71365 36029 ft 452 kts
2026-04-27 09:46 45.56427 -3.69889 36029 ft 452 kts
2026-04-27 09:47 45.62635 -3.68401 36030 ft 452 kts
2026-04-27 09:47 45.68839 -3.66913 36031 ft 452 kts
2026-04-27 09:48 45.75040 -3.65427 36031 ft 452 kts
2026-04-27 09:48 45.81211 -3.63944 36030 ft 452 kts
2026-04-27 09:49 45.87416 -3.62448 36030 ft 452 kts
2026-04-27 09:49 45.92574 -3.61204 36031 ft 452 kts
2026-04-27 09:50 45.98776 -3.59710 36031 ft 452 kts
2026-04-27 09:50 46.04984 -3.58204 36032 ft 452 kts
2026-04-27 09:51 46.11185 -3.56685 36032 ft 452 kts
2026-04-27 09:51 46.17402 -3.55155 36033 ft 452 kts
2026-04-27 09:52 46.23608 -3.53630 36032 ft 452 kts
2026-04-27 09:52 46.29807 -3.52115 36031 ft 452 kts
2026-04-27 09:53 46.36012 -3.50600 36031 ft 452 kts
2026-04-27 09:53 46.42208 -3.49082 36029 ft 452 kts
2026-04-27 09:54 46.48407 -3.47564 36029 ft 452 kts
2026-04-27 09:54 46.54607 -3.46031 36030 ft 452 kts
2026-04-27 09:55 46.60814 -3.44489 36030 ft 452 kts
2026-04-27 09:55 46.70072 -3.42179 36032 ft 452 kts
2026-04-27 09:56 46.76277 -3.40618 36032 ft 452 kts
2026-04-27 09:56 46.82480 -3.39063 36031 ft 452 kts
2026-04-27 09:57 46.88676 -3.37510 36031 ft 452 kts
2026-04-27 09:57 46.94871 -3.35971 36029 ft 451 kts
2026-04-27 09:58 47.01063 -3.34422 36028 ft 451 kts
2026-04-27 09:58 47.07257 -3.32853 36028 ft 451 kts
2026-04-27 09:59 47.13449 -3.31279 36030 ft 452 kts
2026-04-27 09:59 47.19605 -3.29717 36031 ft 452 kts
2026-04-27 10:00 47.25808 -3.28135 36032 ft 452 kts
2026-04-27 10:00 47.32008 -3.26554 36033 ft 452 kts
2026-04-27 10:01 47.38220 -3.24975 36032 ft 452 kts
2026-04-27 10:01 47.44426 -3.23391 36033 ft 452 kts
2026-04-27 10:02 47.50624 -3.21800 36033 ft 452 kts
2026-04-27 10:02 47.56817 -3.20213 36031 ft 451 kts
2026-04-27 10:03 47.63006 -3.18617 36029 ft 451 kts
2026-04-27 10:03 47.69198 -3.17017 36028 ft 451 kts
2026-04-27 10:04 47.75261 -3.14638 36028 ft 452 kts 24°
2026-04-27 10:04 47.80729 -3.10133 36027 ft 452 kts 30°
2026-04-27 10:05 47.86154 -3.05408 36027 ft 452 kts 30°
2026-04-27 10:05 47.91591 -3.00674 36027 ft 452 kts 30°
2026-04-27 10:06 47.97027 -2.95924 36027 ft 453 kts 30°
2026-04-27 10:06 48.02455 -2.91163 36027 ft 453 kts 30°
2026-04-27 10:07 48.07848 -2.86409 36029 ft 453 kts 30°
2026-04-27 10:07 48.13278 -2.81603 36029 ft 453 kts 30°
2026-04-27 10:08 48.18704 -2.76798 36029 ft 453 kts 30°
2026-04-27 10:08 48.24135 -2.71983 36027 ft 453 kts 30°
2026-04-27 10:09 48.29563 -2.67156 36029 ft 453 kts 30°
2026-04-27 10:09 48.34951 -2.62349 36029 ft 453 kts 30°
2026-04-27 10:10 48.40371 -2.57503 36030 ft 453 kts 30°
2026-04-27 10:10 48.45820 -2.52702 36033 ft 453 kts 26°
2026-04-27 10:11 48.51613 -2.48995 36031 ft 453 kts 22°
2026-04-27 10:11 48.57440 -2.45382 36030 ft 453 kts 22°
2026-04-27 10:12 48.63269 -2.41765 36032 ft 453 kts 22°
2026-04-27 10:12 48.69101 -2.38131 36033 ft 453 kts 22°
2026-04-27 10:13 48.74924 -2.34483 36033 ft 453 kts 22°
2026-04-27 10:13 48.80744 -2.30834 36033 ft 453 kts 22°
2026-04-27 10:14 48.86564 -2.27170 36033 ft 453 kts 22°
2026-04-27 10:14 48.92383 -2.23500 36033 ft 453 kts 22°
2026-04-27 10:15 48.98167 -2.19859 36033 ft 453 kts 22°
2026-04-27 10:15 49.03989 -2.16174 36033 ft 453 kts 22°
2026-04-27 10:16 49.09808 -2.12466 36034 ft 453 kts 22°
2026-04-27 10:16 49.15624 -2.08773 36035 ft 453 kts 22°